FAB2901 SBKP-SBGL

Flight info

Callsign FAB2901
Flight time 0h 43m
Altitude 31000
Route UREMI UZ42 VUREP
Aircraft A332/H-SDE3GHIJ2J3J5M1RVWXY/LB2D1

Departure

Time 2026-04-29 23:22
Airport Viracopos International Airport (SBKP)

Arrival

Time 2026-04-30 00:05
Airport Rio Galeão – Tom Jobim International Airport (SBGL)
Time Latitude Longitude Altitude Speed Heading
2026-04-29 22:34 -23.01835 -47.12584 2185 ft 0 kts 127°
2026-04-29 22:39 -23.01847 -47.12567 2184 ft 4 kts 127°
2026-04-29 22:39 -23.01862 -47.12537 2184 ft 5 kts 106°
2026-04-29 22:39 -23.01862 -47.12496 2184 ft 5 kts 76°
2026-04-29 22:39 -23.01843 -47.12463 2184 ft 4 kts 45°
2026-04-29 22:40 -23.01826 -47.12443 2184 ft 3 kts 71°
2026-04-29 22:40 -23.01825 -47.12406 2184 ft 6 kts 85°
2026-04-29 22:40 -23.01816 -47.12368 2184 ft 5 kts 61°
2026-04-29 22:40 -23.01790 -47.12341 2184 ft 4 kts 33°
2026-04-29 22:41 -23.01765 -47.12332 2184 ft 3 kts 360°
2026-04-29 22:41 -23.01742 -47.12344 2184 ft 3 kts 317°
2026-04-29 22:41 -23.01719 -47.12379 2184 ft 7 kts 308°
2026-04-29 22:41 -23.01686 -47.12425 2184 ft 7 kts 307°
2026-04-29 22:42 -23.01653 -47.12472 2184 ft 7 kts 307°
2026-04-29 22:42 -23.01620 -47.12519 2184 ft 7 kts 307°
2026-04-29 22:42 -23.01587 -47.12566 2184 ft 7 kts 307°
2026-04-29 22:42 -23.01554 -47.12612 2184 ft 7 kts 307°
2026-04-29 22:43 -23.01522 -47.12659 2184 ft 7 kts 307°
2026-04-29 22:43 -23.01489 -47.12706 2184 ft 7 kts 307°
2026-04-29 22:43 -23.01456 -47.12752 2184 ft 7 kts 307°
2026-04-29 22:43 -23.01423 -47.12799 2184 ft 7 kts 307°
2026-04-29 22:44 -23.01390 -47.12846 2184 ft 7 kts 307°
2026-04-29 22:44 -23.01357 -47.12893 2184 ft 7 kts 307°
2026-04-29 22:44 -23.01324 -47.12940 2184 ft 7 kts 307°
2026-04-29 22:44 -23.01291 -47.12986 2184 ft 7 kts 307°
2026-04-29 22:45 -23.01259 -47.13033 2184 ft 7 kts 307°
2026-04-29 22:45 -23.01226 -47.13080 2184 ft 7 kts 307°
2026-04-29 22:45 -23.01193 -47.13126 2184 ft 7 kts 307°
2026-04-29 22:45 -23.01160 -47.13173 2183 ft 7 kts 307°
2026-04-29 22:46 -23.01127 -47.13220 2183 ft 7 kts 307°
2026-04-29 22:46 -23.01095 -47.13266 2183 ft 7 kts 307°
2026-04-29 22:46 -23.01062 -47.13313 2183 ft 7 kts 307°
2026-04-29 22:46 -23.01029 -47.13359 2183 ft 7 kts 307°
2026-04-29 22:47 -23.00997 -47.13406 2183 ft 7 kts 307°
2026-04-29 22:47 -23.00964 -47.13452 2183 ft 7 kts 307°
2026-04-29 22:47 -23.00931 -47.13499 2183 ft 7 kts 307°
2026-04-29 22:47 -23.00899 -47.13545 2183 ft 7 kts 307°
2026-04-29 22:48 -23.00866 -47.13593 2183 ft 7 kts 307°
2026-04-29 22:48 -23.00834 -47.13637 2183 ft 5 kts 307°
2026-04-29 22:48 -23.00820 -47.13664 2183 ft 3 kts 282°
2026-04-29 22:48 -23.00826 -47.13692 2183 ft 3 kts 239°
2026-04-29 22:49 -23.00848 -47.13711 2183 ft 3 kts 214°
2026-04-29 22:49 -23.00858 -47.13732 2183 ft 3 kts 265°
2026-04-29 22:49 -23.00862 -47.13768 2183 ft 4 kts 255°
2026-04-29 22:49 -23.00881 -47.13794 2183 ft 4 kts 216°
2026-04-29 22:50 -23.00911 -47.13819 2183 ft 3 kts 218°
2026-04-29 22:50 -23.00934 -47.13824 2183 ft 3 kts 171°
2026-04-29 22:50 -23.00954 -47.13809 2183 ft 3 kts 126°
2026-04-29 22:50 -23.00975 -47.13778 2183 ft 3 kts 129°
2026-04-29 22:51 -23.00981 -47.13770 2183 ft 0 kts 128°
2026-04-29 23:11 -23.00977 -47.13775 2183 ft 1 kts 128°
2026-04-29 23:11 -23.00969 -47.13789 2183 ft 2 kts 111°
2026-04-29 23:11 -23.00965 -47.13804 2183 ft 2 kts 93°
2026-04-29 23:11 -23.00965 -47.13820 2183 ft 2 kts 76°
2026-04-29 23:12 -23.00971 -47.13835 2183 ft 2 kts 59°
2026-04-29 23:12 -23.00979 -47.13849 2183 ft 1 kts 42°
2026-04-29 23:12 -23.00984 -47.13853 2183 ft 1 kts 38°
2026-04-29 23:15 -23.00981 -47.13850 2183 ft 2 kts 38°
2026-04-29 23:15 -23.00953 -47.13825 2183 ft 7 kts 39°
2026-04-29 23:16 -23.00907 -47.13787 2183 ft 8 kts 38°
2026-04-29 23:16 -23.00867 -47.13740 2183 ft 8 kts 57°
2026-04-29 23:16 -23.00831 -47.13698 2183 ft 4 kts 34°
2026-04-29 23:16 -23.00798 -47.13699 2183 ft 5 kts 338°
2026-04-29 23:17 -23.00770 -47.13728 2183 ft 5 kts 310°
2026-04-29 23:17 -23.00742 -47.13765 2183 ft 7 kts 308°
2026-04-29 23:17 -23.00701 -47.13824 2182 ft 11 kts 308°
2026-04-29 23:17 -23.00651 -47.13893 2182 ft 11 kts 308°
2026-04-29 23:18 -23.00599 -47.13965 2182 ft 11 kts 307°
2026-04-29 23:18 -23.00550 -47.14033 2182 ft 11 kts 308°
2026-04-29 23:18 -23.00502 -47.14100 2182 ft 11 kts 307°
2026-04-29 23:18 -23.00456 -47.14166 2182 ft 10 kts 307°
2026-04-29 23:19 -23.00408 -47.14233 2182 ft 13 kts 308°
2026-04-29 23:19 -23.00341 -47.14325 2182 ft 16 kts 308°
2026-04-29 23:19 -23.00268 -47.14427 2182 ft 17 kts 307°
2026-04-29 23:19 -23.00195 -47.14530 2182 ft 16 kts 307°
2026-04-29 23:20 -23.00124 -47.14630 2182 ft 16 kts 308°
2026-04-29 23:20 -23.00052 -47.14727 2182 ft 16 kts 308°
2026-04-29 23:20 -22.99964 -47.14785 2182 ft 14 kts
2026-04-29 23:20 -22.99913 -47.14745 2182 ft 4 kts 52°
2026-04-29 23:21 -22.99893 -47.14691 2182 ft 11 kts 77°
2026-04-29 23:21 -22.99927 -47.14586 2182 ft 20 kts 127°
2026-04-29 23:21 -23.00127 -47.14303 2182 ft 80 kts 128°
2026-04-29 23:21 -23.00611 -47.13631 2183 ft 142 kts 127°
2026-04-29 23:22 -23.01310 -47.12660 2356 ft 176 kts 127°
2026-04-29 23:22 -23.02144 -47.11755 3193 ft 162 kts 139°
2026-04-29 23:22 -23.02974 -47.11002 3722 ft 160 kts 137°
2026-04-29 23:22 -23.03865 -47.10181 4034 ft 175 kts 137°
2026-04-29 23:23 -23.04842 -47.09281 4331 ft 190 kts 138°
2026-04-29 23:23 -23.05910 -47.08297 4581 ft 214 kts 138°
2026-04-29 23:23 -23.07091 -47.07209 4992 ft 235 kts 138°
2026-04-29 23:23 -23.08391 -47.06012 5477 ft 254 kts 139°
2026-04-29 23:24 -23.09808 -47.04710 5928 ft 275 kts 139°
2026-04-29 23:24 -23.11293 -47.03342 6508 ft 289 kts 139°
2026-04-29 23:24 -23.12864 -47.01946 7268 ft 295 kts 149°
2026-04-29 23:24 -23.14754 -47.01047 8082 ft 298 kts 157°
2026-04-29 23:25 -23.16655 -47.00133 8836 ft 303 kts 156°
2026-04-29 23:25 -23.18578 -46.99193 9566 ft 308 kts 156°
2026-04-29 23:25 -23.20504 -46.98246 10321 ft 310 kts 156°
2026-04-29 23:25 -23.22504 -46.97260 10788 ft 325 kts 156°
2026-04-29 23:26 -23.24622 -46.96217 11151 ft 342 kts 156°
2026-04-29 23:26 -23.26799 -46.95143 11713 ft 350 kts 156°
2026-04-29 23:26 -23.29050 -46.94032 12444 ft 351 kts 157°
2026-04-29 23:26 -23.31252 -46.92919 13095 ft 355 kts 153°
2026-04-29 23:27 -23.33145 -46.91298 13628 ft 363 kts 133°
2026-04-29 23:27 -23.34521 -46.88975 14224 ft 367 kts 117°
2026-04-29 23:27 -23.35792 -46.86533 14764 ft 374 kts 121°
2026-04-29 23:27 -23.37105 -46.84099 15321 ft 378 kts 121°
2026-04-29 23:28 -23.38443 -46.81627 15852 ft 384 kts 121°
2026-04-29 23:28 -23.39817 -46.79097 16418 ft 388 kts 121°
2026-04-29 23:28 -23.41186 -46.76572 16868 ft 394 kts 122°
2026-04-29 23:28 -23.42588 -46.73985 17417 ft 397 kts 121°
2026-04-29 23:29 -23.43978 -46.71417 18050 ft 398 kts 121°
2026-04-29 23:29 -23.45394 -46.68802 18641 ft 399 kts 121°
2026-04-29 23:29 -23.46790 -46.66218 19199 ft 402 kts 121°
2026-04-29 23:29 -23.48217 -46.63578 19691 ft 406 kts 121°
2026-04-29 23:30 -23.49660 -46.60909 20163 ft 410 kts 121°
2026-04-29 23:30 -23.51109 -46.58220 20648 ft 414 kts 121°
2026-04-29 23:30 -23.52573 -46.55509 21151 ft 417 kts 121°
2026-04-29 23:30 -23.54031 -46.52808 21646 ft 419 kts 121°
2026-04-29 23:31 -23.55528 -46.50042 22151 ft 422 kts 121°
2026-04-29 23:31 -23.57019 -46.47290 22650 ft 424 kts 121°
2026-04-29 23:31 -23.58289 -46.44420 23132 ft 424 kts 106°
2026-04-29 23:31 -23.58731 -46.41254 23641 ft 419 kts 86°
2026-04-29 23:32 -23.58324 -46.38193 24137 ft 412 kts 71°
2026-04-29 23:32 -23.57633 -46.35168 24651 ft 414 kts 72°
2026-04-29 23:32 -23.56955 -46.32121 25137 ft 415 kts 71°
2026-04-29 23:32 -23.56278 -46.29062 25620 ft 417 kts 72°
2026-04-29 23:33 -23.55596 -46.25974 26099 ft 419 kts 71°
2026-04-29 23:33 -23.54914 -46.22889 26584 ft 420 kts 71°
2026-04-29 23:33 -23.54234 -46.19816 27059 ft 421 kts 72°
2026-04-29 23:33 -23.53542 -46.16690 27538 ft 423 kts 72°
2026-04-29 23:34 -23.52852 -46.13575 27972 ft 425 kts 72°
2026-04-29 23:34 -23.52163 -46.10469 28407 ft 428 kts 72°
2026-04-29 23:34 -23.51466 -46.07330 28850 ft 430 kts 72°
2026-04-29 23:34 -23.50763 -46.04162 29301 ft 432 kts 72°
2026-04-29 23:35 -23.50055 -46.00984 29753 ft 434 kts 72°
2026-04-29 23:35 -23.49348 -45.97805 30209 ft 436 kts 72°
2026-04-29 23:35 -23.48628 -45.94582 30667 ft 437 kts 72°
2026-04-29 23:35 -23.47913 -45.91370 31097 ft 440 kts 72°
2026-04-29 23:36 -23.47182 -45.88105 31125 ft 453 kts 73°
2026-04-29 23:36 -23.46427 -45.84726 31146 ft 466 kts 72°
2026-04-29 23:36 -23.45643 -45.81226 31150 ft 478 kts 73°
2026-04-29 23:36 -23.44856 -45.77705 31155 ft 489 kts 73°
2026-04-29 23:37 -23.44041 -45.74081 31148 ft 500 kts 73°
2026-04-29 23:37 -23.43202 -45.70343 31150 ft 509 kts 73°
2026-04-29 23:37 -23.41539 -45.62942 31134 ft 499 kts 73°
2026-04-29 23:38 -23.39907 -45.55700 31147 ft 495 kts 73°
2026-04-29 23:38 -23.38293 -45.48410 31149 ft 497 kts 74°
2026-04-29 23:39 -23.36741 -45.41116 31141 ft 497 kts 74°
2026-04-29 23:39 -23.35172 -45.33768 31142 ft 495 kts 73°
2026-04-29 23:40 -23.33619 -45.26529 31142 ft 496 kts 73°
2026-04-29 23:40 -23.32050 -45.19214 31145 ft 497 kts 73°
2026-04-29 23:41 -23.30475 -45.11904 31148 ft 495 kts 73°
2026-04-29 23:41 -23.28879 -45.04512 31155 ft 512 kts 73°
2026-04-29 23:42 -23.27238 -44.96923 31153 ft 516 kts 73°
2026-04-29 23:42 -23.25613 -44.89427 31133 ft 509 kts 73°
2026-04-29 23:43 -23.23988 -44.81955 31121 ft 509 kts 73°
2026-04-29 23:43 -23.22364 -44.74506 31088 ft 509 kts 74°
2026-04-29 23:44 -23.21446 -44.70779 30861 ft 508 kts 66°
2026-04-29 23:44 -23.20052 -44.67319 30624 ft 496 kts 62°
2026-04-29 23:44 -23.18686 -44.63953 29985 ft 492 kts 62°
2026-04-29 23:44 -23.17318 -44.60575 29332 ft 488 kts 62°
2026-04-29 23:45 -23.15932 -44.57148 28882 ft 490 kts 62°
2026-04-29 23:45 -23.14577 -44.53798 28313 ft 489 kts 62°
2026-04-29 23:45 -23.13218 -44.50438 27722 ft 487 kts 62°
2026-04-29 23:45 -23.11871 -44.47111 27150 ft 483 kts 62°
2026-04-29 23:46 -23.10523 -44.43789 26621 ft 479 kts 62°
2026-04-29 23:46 -23.09189 -44.40499 26126 ft 474 kts 62°
2026-04-29 23:46 -23.07859 -44.37221 25643 ft 468 kts 62°
2026-04-29 23:46 -23.06565 -44.34037 25162 ft 463 kts 62°
2026-04-29 23:47 -23.05279 -44.30873 24642 ft 458 kts 61°
2026-04-29 23:47 -23.03999 -44.27723 24103 ft 454 kts 61°
2026-04-29 23:47 -23.02730 -44.24604 23550 ft 449 kts 61°
2026-04-29 23:47 -23.01473 -44.21520 22996 ft 445 kts 61°
2026-04-29 23:48 -23.00232 -44.18472 22444 ft 442 kts 60°
2026-04-29 23:48 -22.99002 -44.15457 21912 ft 437 kts 60°
2026-04-29 23:48 -22.97772 -44.12448 21394 ft 433 kts 61°
2026-04-29 23:48 -22.96567 -44.09500 20889 ft 428 kts 61°
2026-04-29 23:49 -22.95371 -44.06569 20391 ft 423 kts 61°
2026-04-29 23:49 -22.94194 -44.03691 19890 ft 418 kts 62°
2026-04-29 23:49 -22.93023 -44.00832 19409 ft 412 kts 61°
2026-04-29 23:49 -22.92007 -43.97950 19058 ft 406 kts 68°
2026-04-29 23:50 -22.91132 -43.95067 18586 ft 401 kts 68°
2026-04-29 23:50 -22.90272 -43.92213 18121 ft 396 kts 68°
2026-04-29 23:50 -22.88595 -43.86612 17218 ft 387 kts 68°
2026-04-29 23:51 -22.87776 -43.83883 16765 ft 383 kts 68°
2026-04-29 23:51 -22.86955 -43.81141 16300 ft 379 kts 69°
2026-04-29 23:51 -22.86147 -43.78448 15832 ft 376 kts 69°
2026-04-29 23:51 -22.85344 -43.75766 15362 ft 372 kts 69°
2026-04-29 23:52 -22.84549 -43.73110 14886 ft 369 kts 69°
2026-04-29 23:52 -22.83761 -43.70484 14404 ft 366 kts 69°
2026-04-29 23:52 -22.82982 -43.67892 13917 ft 364 kts 69°
2026-04-29 23:52 -22.82201 -43.65299 13420 ft 361 kts 70°
2026-04-29 23:53 -22.81426 -43.62717 12925 ft 359 kts 70°
2026-04-29 23:53 -22.80656 -43.60160 12441 ft 356 kts 70°
2026-04-29 23:53 -22.79891 -43.57623 11969 ft 353 kts 70°
2026-04-29 23:53 -22.79135 -43.55114 11516 ft 350 kts 70°
2026-04-29 23:54 -22.78382 -43.52618 11078 ft 346 kts 70°
2026-04-29 23:54 -22.77642 -43.50170 10666 ft 342 kts 70°
2026-04-29 23:54 -22.76915 -43.47762 10294 ft 336 kts 71°
2026-04-29 23:54 -22.76203 -43.45399 10227 ft 321 kts 71°
2026-04-29 23:55 -22.75522 -43.43153 10130 ft 308 kts 71°
2026-04-29 23:55 -22.74866 -43.40980 9999 ft 298 kts 71°
2026-04-29 23:55 -22.74228 -43.38875 9658 ft 296 kts 71°
2026-04-29 23:55 -22.73586 -43.36756 9359 ft 293 kts 71°
2026-04-29 23:56 -22.72951 -43.34661 9069 ft 290 kts 70°
2026-04-29 23:56 -22.72329 -43.32608 8788 ft 287 kts 70°
2026-04-29 23:56 -22.71716 -43.30585 8517 ft 284 kts 70°
2026-04-29 23:56 -22.71103 -43.28569 8250 ft 281 kts 71°
2026-04-29 23:57 -22.70509 -43.26572 7976 ft 278 kts 73°
2026-04-29 23:57 -22.70033 -43.24513 7634 ft 279 kts 75°
2026-04-29 23:57 -22.69560 -43.22498 7308 ft 279 kts 75°
2026-04-29 23:57 -22.69079 -43.20456 6981 ft 278 kts 75°
2026-04-29 23:58 -22.68611 -43.18476 6758 ft 267 kts 75°
2026-04-29 23:58 -22.68160 -43.16563 6754 ft 254 kts 75°
2026-04-29 23:58 -22.67725 -43.14727 6406 ft 256 kts 75°
2026-04-29 23:58 -22.67284 -43.12863 6050 ft 253 kts 74°
2026-04-29 23:59 -22.66855 -43.11049 5672 ft 248 kts 75°
2026-04-29 23:59 -22.66588 -43.09227 5281 ft 244 kts 94°
2026-04-29 23:59 -22.67145 -43.07533 5026 ft 239 kts 126°
2026-04-29 23:59 -22.68395 -43.06431 4854 ft 231 kts 156°
2026-04-30 00:00 -22.69902 -43.05878 4517 ft 229 kts 163°
2026-04-30 00:00 -22.71427 -43.05386 4143 ft 229 kts 164°
2026-04-30 00:00 -22.72995 -43.05052 3713 ft 227 kts 183°
2026-04-30 00:00 -22.74427 -43.05558 3329 ft 210 kts 218°
2026-04-30 00:01 -22.75247 -43.06738 3035 ft 192 kts 252°
2026-04-30 00:01 -22.75636 -43.08064 2816 ft 181 kts 253°
2026-04-30 00:01 -22.75998 -43.09342 2478 ft 176 kts 253°
2026-04-30 00:01 -22.76318 -43.10609 2145 ft 173 kts 255°
2026-04-30 00:02 -22.76627 -43.11868 1899 ft 173 kts 253°
2026-04-30 00:02 -22.76962 -43.13132 1652 ft 172 kts 254°
2026-04-30 00:02 -22.77279 -43.14357 1447 ft 163 kts 253°
2026-04-30 00:02 -22.77583 -43.15522 1201 ft 155 kts 253°
2026-04-30 00:03 -22.77863 -43.16599 985 ft 145 kts 252°
2026-04-30 00:03 -22.78133 -43.17631 806 ft 142 kts 252°
2026-04-30 00:03 -22.78401 -43.18664 626 ft 142 kts 252°
2026-04-30 00:03 -22.78668 -43.19694 445 ft 141 kts 252°
2026-04-30 00:04 -22.78927 -43.20725 262 ft 140 kts 252°
2026-04-30 00:04 -22.79195 -43.21735 89 ft 140 kts 251°
2026-04-30 00:04 -22.79450 -43.22687 38 ft 104 kts 254°
2026-04-30 00:04 -22.79587 -43.23211 33 ft 64 kts 254°
2026-04-30 00:05 -22.79689 -43.23601 30 ft 50 kts 254°
2026-04-30 00:05 -22.79749 -43.23827 30 ft 25 kts 251°
2026-04-30 00:05 -22.79837 -43.23985 29 ft 15 kts 233°
2026-04-30 00:05 -22.79888 -43.24060 29 ft 6 kts 233°
2026-04-30 00:06 -22.79920 -43.24108 29 ft 8 kts 234°
2026-04-30 00:06 -22.79956 -43.24161 29 ft 8 kts 234°
2026-04-30 00:06 -22.80006 -43.24235 29 ft 15 kts 233°
2026-04-30 00:06 -22.80077 -43.24342 29 ft 18 kts 234°
2026-04-30 00:07 -22.80150 -43.24459 29 ft 18 kts 246°
2026-04-30 00:07 -22.80187 -43.24590 29 ft 18 kts 254°
2026-04-30 00:07 -22.80221 -43.24719 29 ft 17 kts 254°
2026-04-30 00:07 -22.80254 -43.24844 29 ft 17 kts 254°
2026-04-30 00:08 -22.80286 -43.24966 29 ft 16 kts 254°
2026-04-30 00:08 -22.80320 -43.25100 29 ft 19 kts 253°
2026-04-30 00:08 -22.80364 -43.25251 29 ft 21 kts 249°
2026-04-30 00:08 -22.80435 -43.25388 29 ft 20 kts 233°
2026-04-30 00:09 -22.80532 -43.25500 29 ft 19 kts 221°
2026-04-30 00:09 -22.80642 -43.25587 29 ft 19 kts 215°
2026-04-30 00:09 -22.80746 -43.25668 30 ft 17 kts 216°
2026-04-30 00:09 -22.80839 -43.25742 32 ft 15 kts 216°
2026-04-30 00:10 -22.80934 -43.25815 31 ft 19 kts 216°
2026-04-30 00:10 -22.81051 -43.25907 29 ft 20 kts 216°
2026-04-30 00:10 -22.81164 -43.25870 29 ft 19 kts 126°
2026-04-30 00:10 -22.81242 -43.25753 29 ft 19 kts 126°
2026-04-30 00:11 -22.81316 -43.25642 30 ft 18 kts 126°
2026-04-30 00:11 -22.81387 -43.25535 32 ft 16 kts 125°
2026-04-30 00:11 -22.81453 -43.25436 34 ft 15 kts 126°
2026-04-30 00:11 -22.81511 -43.25348 35 ft 14 kts 125°
2026-04-30 00:12 -22.81601 -43.25279 35 ft 18 kts 188°
2026-04-30 00:12 -22.81709 -43.25345 31 ft 17 kts 195°
2026-04-30 00:12 -22.81802 -43.25263 29 ft 18 kts 127°
2026-04-30 00:12 -22.81877 -43.25151 29 ft 18 kts 125°
2026-04-30 00:13 -22.81950 -43.25043 29 ft 17 kts 125°
2026-04-30 00:13 -22.82020 -43.24937 29 ft 17 kts 125°
2026-04-30 00:13 -22.82088 -43.24834 29 ft 16 kts 126°
2026-04-30 00:13 -22.82152 -43.24738 31 ft 15 kts 125°
2026-04-30 00:14 -22.82213 -43.24646 33 ft 14 kts 126°
2026-04-30 00:14 -22.82280 -43.24545 35 ft 18 kts 125°
2026-04-30 00:14 -22.82356 -43.24431 36 ft 18 kts 126°
2026-04-30 00:14 -22.82432 -43.24319 36 ft 18 kts 126°
2026-04-30 00:15 -22.82501 -43.24215 38 ft 16 kts 126°
2026-04-30 00:15 -22.82524 -43.24141 39 ft 7 kts 57°
2026-04-30 00:15 -22.82489 -43.24108 39 ft 2 kts 36°
2026-04-30 00:15 -22.82485 -43.24106 38 ft 0 kts 35°